Temp
0 0 0 -1 -1 -0 -0 0 -1 -0 1 2 1 1 2 2 2 2 1 1 1 1 1 1 2 2 2 2 2 3 3 3 3 3 3 3 3 3 3 3 4 4 4
-0 0 -0 -1 -1 -1 -1 -1 0 1 1 2 2 1 1 2 2 2 1 1 1 1 1 1 2 2 2 2 2 3 3 3 3 2 3 3 3 3 3 3 3 3 3
-0 -0 -0 -0 -0 -0 -1 0 1 1 1 2 2 2 1 1 1 2 1 1 1 1 1 1 2 2 2 2 3 3 3 3 3 2 2 2 3 3 3 3 3 3 3
-1 -1 -1 -0 0 1 1 1 1 1 1 1 2 2 1 1 1 1 1 0 1 1 1 1 2 2 2 2 2 2 3 3 3 2 2 2 2 2 3 3 3 2 2
1 1 0 1 1 1 1 1 1 1 1 1 2 2 1 1 0 0 -0 -0 -0 0 1 1 1 2 2 2 2 2 2 2 2 2 2 2 2 1 1 1 1 1 1
1 1 1 1 1 1 1 1 1 1 1 1 1 1 1 1 0 -0 -1 -1 -2 -1 0 0 1 1 1 1 1 1 1 1 1 1 1 1 1 1 0 0 -0 -0 -0
1 2 2 2 1 2 1 1 1 1 1 0 0 0 0 -0 -1 -1 -1 -2 -2 -1 -0 -0 -1 -0 -0 -0 -0 -0 -0 -0 -0 -0 -0 -0 -0 0 0 0 0 0 -0
1 1 2 1 1 1 1 1 1 0 -0 -0 -1 -0 -1 -1 -1 -2 -2 -2 -2 -2 -2 -2 -2 -2 -2 -2 -2 -2 -2 -2 -1 -1 -1 -1 -1 -1 -0 -0 0 0 1
1 1 1 1 1 1 0 -0 -1 -1 -1 -1 -2 -2 -2 -2 -2 -2 -3 -3 -3 -3 -3 -3 -3 -3 -3 -3 -3 -3 -3 -2 -2 -2 -2 -2 -1 -1 -1 -1 -0 0 0
1 1 1 1 0 0 -1 -2 -2 -2 -2 -2 -2 -3 -3 -3 -3 -4 -4 -4 -4 -4 -4 -4 -4 -4 -4 -4 -4 -3 -3 -3 -3 -3 -2 -2 -2 -2 -2 -1 -1 -1 -1
1 1 1 0 -0 -1 -2 -3 -3 -3 -4 -4 -4 -4 -4 -4 -5 -5 -5 -5 -5 -5 -5 -5 -5 -5 -5 -5 -4 -4 -4 -4 -3 -3 -3 -3 -3 -3 -2 -2 -2 -2 -2
0 0 -0 -1 -2 -3 -4 -4 -5 -5 -5 -5 -5 -5 -5 -6 -6 -6 -6 -6 -6 -6 -6 -6 -6 -6 -5 -5 -5 -5 -4 -4 -4 -4 -4 -4 -4 -4 -4 -3 -3 -3 -3
-1 -1 -1 -2 -2 -3 -5 -6 -6 -6 -6 -6 -6 -6 -7 -7 -7 -7 -7 -7 -7 -7 -7 -7 -7 -6 -6 -6 -6 -5 -5 -5 -5 -5 -5 -5 -5 -5 -5 -5 -5 -5 -5
-1 -1 -2 -2 -4 -6 -7 -7 -7 -7 -7 -8 -8 -8 -8 -8 -8 -8 -8 -8 -8 -8 -8 -8 -7 -7 -7 -6 -6 -6 -6 -6 -6 -6 -6 -6 -6 -6 -6 -7 -7 -7 -7
-1 -2 -2 -4 -5 -6 -7 -8 -8 -8 -9 -9 -9 -9 -9 -9 -9 -9 -9 -9 -9 -9 -9 -9 -8 -7 -7 -7 -7 -7 -7 -7 -7 -8 -8 -8 -8 -8 -8 -8 -9 -9 -9
-0 0 -1 -3 -5 -7 -8 -9 -9 -9 -10 -10 -10 -10 -11 -11 -11 -11 -10 -10 -10 -10 -9 -9 -8 -8 -8 -8 -8 -8 -8 -9 -9 -9 -9 -10 -10 -10 -10 -11 -10 -10 -10
-2 -3 -4 -5 -7 -8 -9 -10 -11 -11 -12 -12 -12 -11 -11 -11 -11 -10 -11 -11 -10 -10 -9 -9 -9 -10 -10 -10 -10 -9 -9 -10 -10 -10 -11 -11 -11 -12 -12 -12 -12 -12 -13
-4 -5 -6 -7 -8 -9 -10 -11 -12 -12 -12 -12 -12 -12 -11 -11 -12 -12 -11 -10 -10 -10 -10 -10 -10 -11 -11 -11 -11 -11 -11 -11 -11 -12 -12 -12 -13 -13 -13 -13 -14 -14 -14
-5 -6 -7 -9 -10 -11 -12 -12 -12 -12 -12 -12 -12 -12 -13 -12 -11 -11 -11 -11 -11 -11 -11 -11 -11 -12 -12 -12 -12 -12 -12 -12 -13 -13 -14 -14 -14 -15 -16 -16 -16 -16 -16
-8 -9 -11 -11 -12 -13 -13 -13 -13 -13 -12 -13 -13 -12 -12 -12 -12 -12 -12 -12 -12 -12 -12 -12 -12 -12 -12 -13 -14 -14 -14 -14 -15 -16 -16 -17 -17 -18 -18 -18 -18 -18 -18
-11 -12 -13 -13 -13 -14 -14 -13 -13 -13 -13 -13 -12 -12 -12 -12 -12 -12 -12 -12 -12 -12 -12 -12 -13 -13 -14 -15 -15 -16 -17 -17 -17 -18 -18 -19 -19 -20 -20 -21 -22 -21 -21
-13 -13 -14 -14 -14 -14 -13 -13 -14 -13 -13 -13 -13 -13 -12 -12 -12 -12 -13 -13 -13 -13 -14 -14 -15 -15 -16 -16 -17 -18 -19 -19 -20 -20 -20 -21 -21 -22 -22 -23 -23 -24 -24
-14 -14 -14 -14 -13 -14 -14 -14 -14 -13 -13 -13 -13 -13 -13 -13 -13 -13 -13 -14 -14 -14 -15 -15 -16 -17 -17 -18 -19 -20 -21 -22 -22 -22 -22 -23 -24 -25 -25 -25 -25 -25 -25
-15 -15 -14 -14 -14 -14 -14 -14 -14 -14 -13 -13 -13 -13 -13 -13 -13 -14 -14 -15 -16 -16 -17 -18 -18 -19 -20 -21 -21 -22 -22 -23 -23 -24 -25 -26 -26 -26 -27 -27 -27 -27 -27
-15 -14 -14 -14 -14 -14 -14 -14 -14 -13 -13 -13 -13 -13 -14 -14 -15 -15 -16 -17 -17 -18 -19 -19 -20 -21 -22 -22 -23 -24 -25 -25 -26 -28 -28 -27 -27 -26 -27 -27 -27 -27 -28
-15 -15 -14 -14 -14 -14 -13 -13 -13 -14 -14 -14 -14 -14 -15 -15 -16 -17 -18 -19 -20 -20 -21 -22 -22 -23 -23 -24 -25 -25 -26 -26 -28 -28 -27 -27 -28 -28 -28 -28 -29 -29 -29
Height
3101 3104 3108 3113 3117 3120 3123 3125 3128 3129 3130 3132 3133 3133 3133 3134 3135 3137 3140 3142 3142 3143 3144 3146 3147 3149 3151 3152 3152 3153 3156 3157 3159 3159 3160 3160 3162 3163 3163 3164 3165 3165 3166
3096 3100 3103 3109 3113 3115 3118 3120 3122 3124 3126 3126 3128 3128 3129 3129 3130 3132 3135 3137 3138 3139 3141 3142 3144 3145 3147 3148 3149 3150 3152 3154 3156 3157 3157 3158 3160 3159 3159 3160 3160 3162 3162
3090 3094 3098 3103 3107 3109 3112 3115 3117 3119 3120 3121 3122 3123 3124 3124 3125 3126 3130 3131 3133 3135 3136 3138 3139 3141 3143 3144 3145 3147 3148 3150 3152 3153 3154 3154 3155 3156 3154 3157 3157 3159 3159
3082 3087 3092 3096 3100 3103 3106 3109 3111 3113 3114 3115 3116 3117 3119 3119 3119 3121 3124 3126 3128 3129 3131 3133 3134 3136 3137 3139 3140 3142 3143 3145 3147 3148 3149 3150 3151 3150 3149 3152 3154 3154 3153
3076 3081 3084 3089 3093 3097 3100 3102 3105 3107 3108 3109 3110 3111 3113 3113 3114 3115 3118 3121 3123 3124 3125 3127 3129 3130 3132 3134 3135 3136 3137 3138 3140 3141 3142 3144 3144 3144 3145 3145 3148 3148 3147
3069 3073 3078 3082 3086 3089 3092 3095 3098 3100 3101 3102 3104 3105 3107 3108 3109 3111 3113 3115 3117 3119 3120 3122 3123 3125 3126 3127 3129 3130 3131 3132 3133 3134 3135 3137 3138 3139 3140 3141 3142 3141 3139
3060 3066 3071 3074 3078 3081 3085 3088 3090 3092 3094 3097 3098 3100 3101 3103 3104 3106 3109 3111 3113 3114 3115 3117 3118 3119 3121 3122 3123 3125 3126 3127 3128 3129 3130 3131 3132 3133 3133 3135 3136 3137 3135
3054 3059 3062 3066 3070 3073 3076 3080 3082 3085 3088 3090 3092 3094 3096 3098 3100 3102 3104 3106 3108 3109 3111 3112 3114 3115 3116 3118 3119 3120 3122 3123 3124 3124 3125 3125 3126 3126 3126 3127 3128 3128 3128
3047 3052 3056 3060 3063 3066 3069 3072 3075 3078 3081 3084 3086 3089 3091 3093 3095 3097 3099 3101 3103 3105 3107 3108 3110 3111 3112 3114 3115 3116 3117 3117 3118 3118 3118 3118 3118 3118 3118 3117 3117 3118 3118
3038 3042 3047 3051 3055 3058 3062 3065 3069 3072 3075 3078 3081 3083 3086 3088 3090 3092 3094 3096 3098 3100 3102 3104 3106 3107 3108 3108 3109 3109 3110 3111 3111 3111 3111 3111 3110 3109 3108 3108 3106 3105 3105
3031 3035 3040 3044 3047 3051 3055 3059 3063 3066 3069 3072 3075 3078 3080 3083 3086 3088 3090 3092 3094 3096 3097 3099 3100 3101 3102 3102 3102 3103 3103 3102 3102 3102 3102 3101 3100 3099 3098 3097 3096 3095 3093
3026 3030 3034 3038 3041 3044 3048 3053 3057 3061 3064 3067 3070 3073 3076 3078 3081 3083 3085 3087 3089 3090 3092 3093 3094 3095 3095 3095 3095 3095 3094 3094 3093 3092 3091 3090 3089 3088 3087 3086 3084 3083 3081
3020 3024 3028 3031 3035 3038 3043 3048 3052 3056 3059 3062 3065 3068 3071 3074 3076 3079 3081 3082 3084 3085 3086 3086 3087 3087 3087 3087 3086 3086 3085 3084 3083 3082 3081 3080 3078 3077 3075 3074 3073 3070 3069
3015 3019 3022 3026 3030 3034 3038 3043 3047 3051 3054 3058 3061 3064 3067 3069 3071 3074 3075 3076 3078 3078 3079 3079 3079 3079 3078 3078 3077 3076 3075 3074 3073 3072 3070 3069 3067 3065 3064 3062 3060 3058 3056
3011 3014 3018 3022 3025 3029 3033 3038 3042 3046 3049 3053 3056 3059 3062 3064 3065 3067 3069 3070 3071 3071 3072 3072 3071 3070 3069 3068 3067 3066 3065 3064 3062 3061 3059 3057 3055 3052 3050 3049 3047 3044 3042
3007 3009 3011 3015 3020 3025 3029 3033 3037 3041 3044 3047 3050 3053 3055 3057 3060 3062 3063 3064 3064 3064 3064 3063 3062 3061 3059 3057 3055 3054 3053 3052 3050 3049 3047 3045 3042 3039 3037 3034 3032 3030 3027
3003 3005 3006 3009 3013 3018 3022 3026 3030 3034 3037 3042 3045 3048 3051 3053 3054 3055 3055 3056 3057 3057 3055 3054 3053 3051 3049 3046 3044 3041 3038 3039 3037 3035 3033 3031 3029 3026 3024 3022 3019 3016 3013
2994 2997 3001 3004 3007 3011 3015 3020 3026 3032 3036 3039 3041 3044 3045 3046 3047 3049 3050 3049 3049 3048 3046 3045 3043 3042 3039 3036 3033 3029 3025 3023 3022 3021 3018 3015 3014 3012 3008 3005 3004 3001 2998
2987 2990 2994 3000 3006 3011 3016 3020 3025 3029 3032 3035 3037 3038 3040 3041 3042 3042 3042 3041 3039 3038 3036 3033 3031 3029 3029 3025 3021 3016 3012 3008 3007 3004 3002 3000 2997 2996 2993 2988 2985 2985 2984
2982 2988 2994 2999 3003 3009 3013 3018 3022 3025 3028 3030 3032 3034 3035 3035 3034 3034 3032 3030 3028 3027 3024 3022 3019 3017 3014 3012 3008 3003 2997 2994 2992 2990 2987 2985 2982 2978 2976 2973 2970 2967 2967
2979 2983 2990 2996 3002 3007 3011 3015 3018 3021 3024 3026 3027 3028 3028 3027 3026 3024 3022 3020 3018 3015 3013 3010 3007 3003 2999 2995 2992 2989 2983 2978 2975 2971 2969 2967 2966 2963 2960 2958 2953 2950 2950
2976 2983 2989 2995 3001 3006 3010 3012 3016 3019 3020 3021 3022 3022 3020 3018 3017 3015 3012 3009 3007 3003 3000 2996 2992 2988 2984 2980 2976 2973 2970 2966 2960 2956 2952 2950 2948 2947 2946 2944 2942 2941 2940
2977 2984 2990 2996 3000 3004 3008 3011 3013 3014 3015 3015 3015 3014 3012 3009 3007 3004 3002 2999 2995 2991 2986 2982 2977 2973 2968 2965 2961 2958 2954 2950 2946 2943 2940 2937 2935 2933 2931 2931 2930 2928 2927
2979 2985 2990 2994 2999 3003 3006 3008 3009 3010 3010 3009 3007 3006 3003 3001 2998 2994 2990 2987 2983 2979 2974 2970 2966 2962 2958 2954 2951 2947 2943 2940 2936 2934 2931 2927 2924 2922 2920 2918 2917 2917 2915
2981 2986 2991 2995 2998 3001 3003 3004 3004 3004 3003 3001 2999 2997 2995 2992 2989 2985 2981 2976 2972 2967 2961 2956 2952 2948 2946 2943 2939 2936 2932 2929 2925 2923 2919 2915 2913 2910 2909 2908 2907 2907 2905
2983 2987 2990 2994 2996 2998 2999 2998 2998 2997 2996 2995 2993 2991 2987 2984 2979 2976 2973 2966 2961 2957 2953 2949 2945 2941 2938 2935 2932 2929 2926 2922 2920 2914 2911 2908 2905 2902 2900 2898 2896 2895 2895
Wind_Speed
39 39 36 32 29 30 27 28 24 30 24 22 22 21 22 21 21 19 18 18 18 19 18 18 18 17 17 16 15 15 12 12 12 13 13 13 12 12 13 13 14 14 14
40 39 37 36 34 33 31 32 30 27 24 23 24 25 24 23 23 22 22 21 20 20 21 20 20 19 19 19 18 18 16 16 15 15 17 17 16 15 16 16 16 15 17
38 38 38 38 37 35 33 32 25 25 24 24 25 26 26 25 25 25 24 23 22 22 22 22 22 22 21 21 20 20 20 19 18 18 19 20 19 18 22 19 19 18 19
36 38 39 38 35 30 25 24 24 24 25 25 25 25 26 25 24 25 25 24 24 24 24 24 24 24 23 23 23 22 23 22 22 23 23 23 23 24 26 24 21 19 22
34 34 34 31 28 26 25 24 24 25 25 25 25 25 25 24 24 25 25 24 24 24 24 24 24 24 23 22 23 24 25 24 24 24 24 24 24 26 27 27 24 25 26
30 31 28 28 28 28 26 26 25 26 26 26 26 25 25 23 24 24 24 24 23 23 22 22 22 21 21 21 20 19 19 19 18 18 18 17 18 18 18 18 17 18 22
32 30 30 31 31 31 30 29 28 27 28 27 26 26 25 24 23 22 22 22 22 22 22 21 19 18 17 16 16 16 16 16 17 17 17 18 19 20 21 21 21 21 24
37 37 37 37 36 35 34 33 31 29 28 27 26 26 26 25 24 23 23 23 22 20 18 16 16 15 15 15 16 16 17 18 19 20 21 22 23 24 25 26 26 28 29
34 38 40 39 39 38 37 34 32 29 28 27 26 26 26 25 25 24 22 21 19 18 17 16 16 16 17 17 18 19 20 21 22 23 24 25 27 28 29 31 32 33 33
34 37 39 39 39 38 36 33 31 29 28 27 26 26 25 24 23 21 20 19 19 19 18 18 19 19 20 21 21 23 24 25 26 27 28 29 31 32 34 35 36 37 38
37 35 35 38 39 37 35 32 30 28 27 26 25 25 24 23 22 21 21 20 19 19 19 20 21 21 22 23 24 26 27 28 30 31 32 33 34 36 37 37 39 40 42
34 35 33 32 33 34 33 31 29 28 27 25 25 24 24 23 22 22 21 21 21 21 21 22 23 24 25 26 27 29 30 32 33 34 35 36 37 38 39 40 41 42 44
26 31 29 29 30 30 30 29 28 27 26 26 25 24 24 23 22 22 22 22 22 22 23 24 25 26 28 29 31 32 33 34 35 36 37 38 39 40 41 42 44 45 46
20 22 25 26 26 27 28 28 27 27 26 26 25 25 24 23 23 23 22 22 23 23 24 26 27 29 31 32 34 34 35 36 38 39 40 41 42 43 44 45 46 48 49
15 15 17 22 25 27 28 28 28 27 26 26 25 25 24 24 23 23 22 23 24 27 28 29 31 33 34 35 36 37 38 39 39 40 41 43 44 46 47 47 48 49 50
23 27 28 25 26 27 28 28 28 27 27 27 27 26 25 24 25 26 27 26 24 26 29 31 33 34 36 38 39 41 41 42 42 43 44 44 46 47 48 49 50 51 52
30 27 30 30 29 30 31 31 30 30 29 27 26 25 25 24 24 22 21 23 27 29 31 32 34 35 37 40 42 44 46 46 46 47 47 48 48 49 50 50 52 52 53
32 32 34 33 32 33 34 32 27 23 22 21 21 21 20 17 18 22 26 27 29 30 32 33 35 37 39 41 44 47 50 51 51 51 52 53 52 51 53 54 54 54 54
34 34 34 30 24 23 21 20 19 19 18 17 15 13 15 20 23 25 27 29 30 33 35 37 39 41 41 44 47 50 54 55 55 55 55 56 55 53 53 55 56 54 53
28 25 23 22 20 19 19 18 17 16 14 9 11 17 21 23 25 26 28 31 34 36 38 41 44 46 48 48 50 52 55 57 56 56 55 53 53 52 51 51 52 53 51
24 25 22 21 20 19 18 17 15 9 8 13 18 20 22 24 26 28 31 35 38 41 44 46 47 49 50 51 51 51 53 54 56 56 55 53 50 48 47 46 47 48 46
26 24 22 20 18 17 15 8 5 9 14 16 18 20 23 26 29 32 35 38 41 44 46 48 50 50 51 51 51 50 49 49 51 52 53 52 49 47 44 42 42 39 35
24 23 20 20 17 9 7 9 10 11 13 16 19 22 26 29 32 35 38 41 43 46 47 49 50 50 50 49 47 45 44 43 43 44 44 43 42 38 39 37 37 37 38
25 23 18 12 11 9 7 7 9 11 14 18 21 24 28 31 35 37 40 42 43 44 45 45 45 44 42 41 38 37 36 36 35 35 34 33 34 33 33 32 32 34 33
20 17 15 11 8 6 5 7 10 13 16 20 23 27 30 32 35 37 38 39 40 40 40 41 40 40 37 35 34 33 32 32 32 28 30 34 35 37 38 38 37 36 36
17 13 10 7 5 3 5 8 11 15 18 22 25 27 30 32 33 33 32 33 34 33 33 34 34 34 33 32 31 31 30 30 26 28 31 32 32 34 36 37 38 36 32
Wind_Direction
225 226 226 228 232 232 233 235 242 256 267 266 270 272 270 263 254 249 246 242 239 241 241 242 244 245 248 250 250 251 249 254 257 260 262 263 262 260 256 254 257 261 263
226 228 228 230 231 233 241 250 252 259 260 264 272 275 270 263 255 249 244 242 238 239 241 242 244 246 248 250 252 254 252 251 250 254 259 262 264 264 265 260 263 263 266
227 230 231 231 234 240 241 251 257 257 260 263 268 271 267 259 254 248 246 244 240 240 242 244 245 246 248 251 252 255 257 255 255 253 255 262 263 262 259 262 263 266 266
231 230 233 237 240 244 246 251 255 257 258 260 263 265 263 256 250 248 245 245 244 243 243 246 249 249 251 254 257 257 258 257 256 255 255 256 259 262 265 265 267 269 269
236 236 238 240 240 239 243 248 254 258 259 259 259 258 257 255 248 244 243 245 246 246 247 246 248 250 251 251 252 256 259 260 259 259 257 256 255 256 260 267 266 263 260
231 232 231 230 233 238 242 250 255 258 259 258 255 252 251 249 248 245 244 245 247 248 249 248 251 253 252 253 251 250 252 254 255 256 257 255 253 253 253 256 258 264 271
227 224 226 230 234 239 244 249 254 256 256 255 251 249 247 245 244 245 246 247 248 251 254 255 253 248 245 244 245 245 246 249 251 252 256 258 260 263 265 265 263 262 267
232 228 229 232 236 240 246 249 250 251 251 250 248 246 244 243 243 244 247 251 255 254 249 242 240 240 241 244 247 250 253 255 258 261 264 267 268 269 271 272 272 273 271
238 241 241 239 240 244 247 247 246 246 246 245 245 243 242 242 243 245 247 247 244 241 240 241 243 245 249 252 256 259 262 264 266 268 270 273 275 277 278 280 279 278 276
237 237 237 240 242 243 243 244 243 242 241 241 240 241 241 240 239 238 237 237 237 238 240 243 247 252 256 260 263 267 269 272 274 275 277 278 280 281 282 283 283 283 282
241 242 240 239 240 240 240 240 239 238 236 236 236 236 236 236 235 234 235 237 239 243 248 253 258 262 265 269 272 274 277 279 280 281 282 283 283 283 284 284 284 284 284
246 244 241 242 240 238 235 233 233 233 233 232 232 232 233 233 234 235 237 241 247 252 257 262 266 270 273 276 278 280 281 283 284 285 285 285 284 285 285 284 284 284 284
246 245 243 241 239 236 231 229 229 229 229 229 230 231 231 232 234 238 243 248 254 259 264 269 273 276 279 281 283 284 285 286 286 286 286 286 286 286 285 285 285 285 285
241 240 241 239 232 226 223 224 226 226 226 227 229 229 230 232 237 242 247 253 258 265 270 275 280 283 285 286 286 287 287 287 287 287 287 287 286 286 286 286 286 285 286
230 230 237 234 227 222 221 222 222 223 224 225 226 228 231 234 239 244 251 258 264 270 275 281 284 286 287 288 288 288 288 288 287 288 288 289 289 288 288 287 287 287 287
249 241 229 222 222 221 220 220 221 222 222 223 224 226 230 235 241 251 260 267 275 282 281 282 285 288 289 289 290 290 289 290 290 290 289 288 288 289 289 289 289 289 288
249 240 222 213 212 216 216 216 217 217 218 222 229 239 247 253 256 262 275 280 276 278 281 285 287 289 290 291 292 292 291 291 291 291 290 289 289 289 288 287 287 287 286
239 230 223 220 216 215 215 216 220 227 229 232 236 242 248 260 273 273 273 277 281 285 287 288 290 291 292 293 293 292 292 292 292 291 290 290 289 289 288 287 286 286 286
228 221 218 218 220 219 217 218 220 223 225 230 239 256 269 269 271 277 281 284 287 290 292 293 293 293 293 292 291 290 290 290 290 290 290 291 290 289 287 286 286 284 283
218 215 212 209 205 205 205 207 212 217 222 243 266 267 271 276 280 286 290 293 294 295 295 294 294 293 293 291 291 291 291 290 291 291 290 290 290 290 289 286 285 284 284
198 194 190 187 190 194 198 203 208 220 252 261 264 272 280 285 290 294 295 296 296 296 295 295 295 295 294 294 293 293 293 294 294 293 292 292 291 289 288 289 289 289 290
180 176 176 179 184 190 192 192 223 244 255 268 278 284 289 293 296 297 298 298 298 298 298 297 297 297 297 296 296 296 296 295 293 293 294 293 291 290 289 287 287 289 290
163 164 167 174 178 169 183 215 239 260 274 282 288 293 297 300 301 301 300 300 299 299 300 300 300 300 301 301 302 302 301 299 296 294 292 292 292 291 289 286 281 277 272
154 162 165 152 170 190 214 241 262 275 285 293 299 301 302 303 303 303 303 303 303 303 303 302 302 302 302 304 305 304 301 298 297 296 294 287 283 281 279 277 276 277 277
147 150 159 165 178 203 237 267 284 296 303 306 307 307 307 306 305 305 306 306 307 309 309 310 311 312 313 313 314 314 312 311 309 309 297 295 294 292 287 281 279 279 280
149 148 152 160 179 233 289 308 313 313 314 314 312 310 309 310 311 312 313 315 315 316 315 313 313 314 316 316 316 315 313 311 316 300 301 300 296 291 288 288 288 288 281